[[{"header":{"parameterUnit":"m.s-1","parameterCategory":1,"la1":30.2991,"la2":30.254,"lo1":-89.0895,"lo2":-89.0444,"dy":0.0017,"dx":0.0017,"nx":28,"ny":28,"refTime":"2023-04-23T21:00:00:Z","depth":0,"parameterNumber":2,"parameterNumberName":"U-component_of_WINDS"},"data":[0,0,0,0,0,0,0,0,0,0,0,0,0,0,0,0,0,0,0,0,0,0,0,0,0,0,0,0,0,0,0,0,0,0,0,0,0,0,0,0,0,0,0,0,0,0,0,0,0,0,0,0,0,0,0,0,0,0,-4.2349,-4.2349,0,-4.2374,-4.2374,-4.2375,-4.2211,-4.2206,-4.2201,-4.2197,-4.2226,-4.2231,-4.2236,0,0,0,0,0,0,0,0,0,0,0,0,0,-4.216,-4.2164,-4.2349,-4.2349,-4.2349,-4.2374,-4.2374,-4.2375,-4.2211,-4.2206,-4.22,-4.2195,-4.2224,-4.223,-4.2237,0,0,0,0,0,0,0,0,0,0,0,0,0,-4.222,-4.2166,-4.2349,-4.2271,-4.2264,-4.2374,-4.2374,-4.2375,-4.2213,-4.2206,-4.2199,-4.2192,-4.2222,-4.223,-4.2237,-4.2424,0,0,-4.2261,-4.2264,0,0,0,0,0,0,0,0,-4.2216,-4.2227,-4.2282,-4.2276,-4.2269,-4.2282,-4.2318,-4.2392,-4.2214,-4.2232,-4.2197,-4.2189,-4.2251,-4.2255,-4.2276,-4.2426,-4.2427,-4.2262,-4.2266,-4.227,-4.2272,0,0,0,0,0,0,0,-4.2213,-4.2225,-4.2359,-4.2283,-4.2275,-4.2235,-4.2236,-4.2331,-4.228,-4.223,-4.2218,-4.2223,-4.2246,-4.2269,-4.2275,-4.2427,-4.2261,-4.2268,-4.2273,-4.2276,-4.273,-4.2737,0,0,0,0,0,0,-4.2219,-4.2222,-4.2358,-4.236,-4.2225,-4.2244,-4.2245,-4.2285,-4.2279,-4.2271,-4.2229,-4.2216,-4.2259,-4.2266,-4.2276,-4.2493,-4.2269,-4.2277,-4.2281,-4.2723,-4.2732,-4.274,0,0,0,0,0,0,-4.2215,-4.2232,-4.2357,-4.2288,-4.23,-4.2255,-4.2301,-4.2289,-4.2312,-4.2278,-4.2268,-4.2262,-4.2254,-4.2265,-4.2388,-4.2492,-4.228,-4.2287,-4.2714,-4.2726,-4.2736,-4.2931,0,0,0,0,0,0,-4.221,-4.2232,-4.2303,-4.229,-4.2305,-4.247,-4.2307,-4.2295,-4.2325,-4.2308,-4.2306,-4.23,-4.2249,-4.2377,-4.2396,-4.2499,-4.2293,-4.2704,-4.2719,-4.2732,-4.2915,-4.2947,-4.2975,0,0,0,0,0,-4.2204,-4.2358,-4.2307,-4.2324,-4.2392,-4.2476,-4.2484,-4.2422,-4.2334,-4.2405,-4.2383,-4.23,-4.2477,-4.2391,-4.2411,-4.2518,-4.2698,-4.2715,-4.2731,-4.2902,-4.2941,-4.2974,0,0,0,0,0,0,-4.2385,-4.2355,-4.2298,-4.2452,-4.2468,-4.2448,-4.2535,-4.2466,-4.2508,-4.249,-4.2412,-4.2413,-4.2549,-4.2545,-4.245,-4.2697,-4.2572,-4.2594,-4.2695,-4.2732,-4.2762,-4.2761,-4.2299,0,0,0,0,0,-4.2443,-4.2513,-4.2482,-4.2621,-4.2631,-4.2583,-4.2617,-4.2567,-4.258,-4.2587,-4.2573,-4.259,-4.2649,-4.269,-4.2743,-4.2913,-4.291,-4.2996,-4.3026,-4.305,-4.3071,-4.3159,-4.3196,-4.2795,-4.2795,-4.2795,0,0,-4.2563,-4.2555,-4.2604,-4.2657,-4.2663,-4.2738,-4.2589,-4.2675,-4.2729,-4.26,-4.2715,-4.2706,-4.2719,-4.2866,-4.2931,-4.2867,-4.318,-4.3072,-4.3092,-4.3098,-4.318,-4.3218,-4.3252,-4.2806,-4.2804,-4.2803,0,0,-4.282,-4.2821,-4.2936,-4.2945,-4.2955,-4.2921,-4.2948,-4.2939,-4.2927,-4.3041,-4.2945,-4.3008,-4.3113,-4.3125,-4.3146,-4.3405,-4.333,-4.3424,-4.3582,-4.3669,-4.3701,-4.3728,-4.3821,-4.3855,-4.3444,-4.3444,-4.3445,0,-4.2969,-4.3077,-4.3005,-4.3096,-4.3122,-4.3006,-4.3121,-4.3133,-4.3161,-4.3182,-4.311,-4.3237,-4.3237,-4.3385,-4.3448,-4.3469,-4.3498,-4.3425,-4.3702,-4.3729,-4.3754,-4.3841,-4.3876,-4.3456,-4.3454,-4.3453,-4.3452,0,-4.3259,-4.3335,-4.3426,-4.3454,-4.349,-4.3594,-4.3537,-4.3582,-4.3529,-4.3502,-4.3619,-4.3615,-4.3665,-4.3696,-4.3646,-4.3837,-4.3797,-4.3715,-4.3588,-4.3804,-4.3885,-4.3918,-4.3472,-4.3468,-4.3465,-4.3462,0,0,-4.3634,-4.3618,-4.3653,-4.3663,-4.3664,-4.3722,-4.3819,-4.3866,-4.3906,-4.3928,-4.4008,-4.4097,-4.402,-4.4044,-4.3993,-4.407,-4.4275,-4.3977,-4.3977,-4.4033,-4.4484,-4.4547,-4.4587,-4.4224,-4.423,-4.4235,-4.4483,0,-4.3885,-4.405,-4.3986,-4.4157,-4.4225,-4.4114,-4.4199,-4.4209,-4.4187,-4.4242,-4.4216,-4.4281,-4.4174,-4.4187,-4.4258,-4.4235,-4.4364,-4.4216,-4.4298,-4.4302,-4.43,-4.4629,-4.4696,-4.4931,-4.4514,-4.452,-4.4523,0,-4.4201,-4.4234,-4.4411,-4.4398,-4.4424,-4.4502,-4.4538,-4.4592,-4.4601,-4.4578,-4.4603,-4.4535,-4.463,-4.4502,-4.4631,-4.4531,-4.4561,-4.4554,-4.4562,-4.4568,-4.4427,-4.4645,-4.5004,-4.504,-4.4572,-4.4569,-4.4565,0,-4.4457,-4.4546,-4.4662,-4.4674,-4.4663,-4.4719,-4.4717,-4.4718,-4.475,-4.4782,-4.4801,-4.4845,-4.4869,-4.4904,-4.4849,-4.4761,-4.4986,-4.4854,-4.4971,-4.4973,-4.5025,-4.5023,-4.5395,-4.5043,-4.5042,-4.5042,-4.5041,0,-4.4745,-4.4858,-4.4776,-4.4849,-4.4971,-4.4896,-4.502,-4.5005,-4.5007,-4.5074,-4.4981,-4.5046,-4.497,-4.5028,-4.4985,-4.5098,-4.511,-4.5095,-4.5083,-4.5104,-4.5106,-4.5123,-4.5106,-4.5051,-4.5049,-4.5047,-4.5045,0,-4.5053,-4.5003,-4.5123,-4.51,-4.5097,-4.5189,-4.5169,-4.5235,-4.5204,-4.529,-4.5306,-4.5259,-4.5322,-4.527,-4.5332,-4.5303,-4.5453,-4.5417,-4.5451,-4.5441,-4.5561,-4.5551,-4.5958,-4.6007,-4.5624,-4.5627,-4.5631,0,-4.524,-4.5324,-4.531,-4.5347,-4.535,-4.5412,-4.5443,-4.5372,-4.5408,-4.5423,-4.5487,-4.5541,-4.5581,-4.5687,-4.5659,-4.5705,-4.567,-4.5809,-4.5677,-4.5695,-4.5673,-4.5669,-4.5676,-4.5837,-4.5842,-4.5846,-4.5849,0,-4.5579,-4.5549,-4.5596,-4.5635,-4.5674,-4.5701,-4.5722,-4.5758,-4.5685,-4.573,-4.5792,-4.5824,-4.5885,-4.5941,-4.5977,-4.5974,-4.5901,-4.589,-4.592,-4.5943,-4.5959,-4.5952,-4.5525,-4.5882,-4.5878,-4.5876,-4.5874,-4.5873,-4.5832,-4.59,-4.59,-4.5956,-4.5963,-4.5983,-4.6043,-4.6019,-4.6069,-4.6113,-4.6068,-4.6144,-4.6148,-4.6189,-4.6195,-4.6253,-4.6195,-4.6239,-4.6249,-4.6261,-4.6279,-4.5949,-4.626,-4.6259,-4.6258,-4.6257,-4.6256,0,-4.6165,-4.6159,-4.6211,-4.624,-4.6284,-4.6207,-4.6225,-4.6267,-4.6334,-4.6344,-4.6384,-4.6455,-4.6508,-4.6482,-4.6528,-4.658,-4.6547,-4.6594,-4.659,-4.6591,-4.6328,-4.6298,-4.662,-4.662,-4.662,-4.662,-4.662,-4.662,-4.6344,-4.6455,-4.6426,-4.6539,-4.6532,-4.6604,-4.6621,-4.6639,-4.6646,-4.6729,-4.6771,-4.6753,-4.6749,-4.6793,-4.6838,-4.6829,-4.685,-4.6911,-4.689,-4.6645,-4.6609,-4.6575,-4.6546,-4.6916,-4.6916,-4.7147,-4.7149,-4.7151]},{"header":{"parameterUnit":"m.s-1","parameterCategory":1,"la1":30.2991,"la2":30.254,"lo1":-89.0895,"lo2":-89.0444,"dy":0.0017,"dx":0.0017,"nx":28,"ny":28,"refTime":"2023-04-23T21:00:00:Z","depth":0,"parameterNumber":3,"parameterNumberName":"V-component_of_WINDS"},"data":[0,0,0,0,0,0,0,0,0,0,0,0,0,0,0,0,0,0,0,0,0,0,0,0,0,0,0,0,0,0,0,0,0,0,0,0,0,0,0,0,0,0,0,0,0,0,0,0,0,0,0,0,0,0,0,0,0,0,-3.6712,-3.6713,0,-3.6776,-3.6776,-3.6777,-3.6748,-3.6747,-3.6745,-3.6744,-3.6805,-3.6808,-3.6811,0,0,0,0,0,0,0,0,0,0,0,0,0,-3.656,-3.6563,-3.6712,-3.6713,-3.6713,-3.6775,-3.6776,-3.6777,-3.6748,-3.6747,-3.6745,-3.6743,-3.6804,-3.6808,-3.6811,0,0,0,0,0,0,0,0,0,0,0,0,0,-3.6625,-3.6564,-3.6712,-3.6707,-3.6707,-3.6775,-3.6776,-3.6777,-3.6749,-3.6747,-3.6744,-3.6742,-3.6803,-3.6807,-3.6812,-3.6888,0,0,-3.6826,-3.6828,0,0,0,0,0,0,0,0,-3.6622,-3.6631,-3.6707,-3.6707,-3.6708,-3.6752,-3.6745,-3.6814,-3.6749,-3.6733,-3.6744,-3.6741,-3.6789,-3.6795,-3.6812,-3.6891,-3.6893,-3.6827,-3.6829,-3.6831,-3.6833,0,0,0,0,0,0,0,-3.6617,-3.6628,-3.6737,-3.6708,-3.6708,-3.67,-3.6706,-3.6758,-3.6773,-3.6734,-3.6732,-3.674,-3.6789,-3.6807,-3.6813,-3.6894,-3.6826,-3.6831,-3.6833,-3.6835,-3.7035,-3.7038,0,0,0,0,0,0,-3.6613,-3.6624,-3.6735,-3.6739,-3.6658,-3.6704,-3.6712,-3.674,-3.6773,-3.6775,-3.6742,-3.6739,-3.68,-3.6807,-3.6815,-3.6904,-3.6831,-3.6836,-3.6838,-3.7033,-3.7036,-3.7039,0,0,0,0,0,0,-3.661,-3.6624,-3.6732,-3.6681,-3.6694,-3.6709,-3.6741,-3.6742,-3.6761,-3.6779,-3.6781,-3.6759,-3.6799,-3.6808,-3.6869,-3.6906,-3.6838,-3.6842,-3.703,-3.7034,-3.7037,-3.7084,0,0,0,0,0,0,-3.6606,-3.6623,-3.6653,-3.6682,-3.6697,-3.6788,-3.6743,-3.6745,-3.6769,-3.6765,-3.6795,-3.6797,-3.6798,-3.6863,-3.6874,-3.6911,-3.6846,-3.7027,-3.7032,-3.7036,-3.7079,-3.7089,-3.7097,0,0,0,0,0,-3.6601,-3.6663,-3.6655,-3.6668,-3.6736,-3.679,-3.6798,-3.6798,-3.6772,-3.6802,-3.6813,-3.6796,-3.69,-3.6869,-3.6882,-3.692,-3.7024,-3.703,-3.7036,-3.7075,-3.7087,-3.7097,0,0,0,0,0,0,-3.6637,-3.6667,-3.6658,-3.6732,-3.6759,-3.6785,-3.6822,-3.6811,-3.6845,-3.684,-3.6837,-3.6844,-3.6907,-3.692,-3.6885,-3.6994,-3.6958,-3.6966,-3.6983,-3.6995,-3.7003,-3.6998,-3.685,0,0,0,0,0,-3.6654,-3.6697,-3.672,-3.6783,-3.6797,-3.6808,-3.6831,-3.6829,-3.6856,-3.6867,-3.6882,-3.6908,-3.6946,-3.6971,-3.7007,-3.7081,-3.7085,-3.7113,-3.7122,-3.7129,-3.7136,-3.7173,-3.7185,-3.7057,-3.7057,-3.7057,0,0,-3.6689,-3.6711,-3.6738,-3.6791,-3.6812,-3.6854,-3.6817,-3.6864,-3.6895,-3.6873,-3.6932,-3.6944,-3.6972,-3.7039,-3.707,-3.7052,-3.7173,-3.7137,-3.7142,-3.7145,-3.7181,-3.7193,-3.7203,-3.7061,-3.7061,-3.706,0,0,-3.6774,-3.6796,-3.685,-3.6871,-3.6902,-3.6908,-3.6921,-3.6949,-3.6956,-3.7015,-3.6999,-3.7035,-3.7101,-3.7121,-3.714,-3.7231,-3.7216,-3.7242,-3.7289,-3.7325,-3.7335,-3.7344,-3.7374,-3.7385,-3.725,-3.725,-3.725,0,-3.6813,-3.6879,-3.6879,-3.6927,-3.6949,-3.6932,-3.6985,-3.7005,-3.7046,-3.7061,-3.7042,-3.7123,-3.7141,-3.7211,-3.7233,-3.725,-3.7262,-3.7239,-3.7334,-3.7343,-3.7351,-3.738,-3.7391,-3.7253,-3.7252,-3.7252,-3.7252,0,-3.6924,-3.6969,-3.7008,-3.7049,-3.7076,-3.7127,-3.7132,-3.716,-3.7154,-3.7162,-3.722,-3.7241,-3.728,-3.7297,-3.7293,-3.7366,-3.7354,-3.7334,-3.7297,-3.7366,-3.7393,-3.7404,-3.7257,-3.7256,-3.7255,-3.7254,0,0,-3.7034,-3.7074,-3.7088,-3.7105,-3.7137,-3.7171,-3.722,-3.7259,-3.7281,-3.731,-3.7348,-3.7404,-3.7385,-3.7407,-3.7404,-3.7436,-3.7504,-3.7412,-3.7412,-3.7427,-3.7583,-3.7597,-3.761,-3.7494,-3.7496,-3.7498,-3.758,0,-3.712,-3.7207,-3.7207,-3.7286,-3.7326,-3.7309,-3.7351,-3.7374,-3.7382,-3.7416,-3.7424,-3.7462,-3.7436,-3.7448,-3.748,-3.7489,-3.7535,-3.7483,-3.7528,-3.753,-3.7521,-3.7624,-3.7639,-3.7716,-3.7591,-3.7592,-3.7594,0,-3.7233,-3.7265,-3.7348,-3.7372,-3.7389,-3.7427,-3.7461,-3.7495,-3.752,-3.7523,-3.7546,-3.7538,-3.7585,-3.7548,-3.7611,-3.7576,-3.7594,-3.7601,-3.7604,-3.7607,-3.7565,-3.7628,-3.774,-3.7751,-3.7611,-3.7609,-3.7608,0,-3.7303,-3.7367,-3.7424,-3.7439,-3.747,-3.7497,-3.751,-3.7533,-3.7556,-3.7585,-3.7599,-3.7634,-3.7652,-3.7678,-3.7679,-3.7652,-3.7742,-3.7705,-3.7744,-3.7744,-3.7763,-3.7761,-3.7877,-3.7777,-3.7777,-3.7777,-3.7776,0,-3.7398,-3.7449,-3.7456,-3.7491,-3.7546,-3.7545,-3.7599,-3.761,-3.763,-3.7666,-3.7653,-3.7686,-3.7686,-3.7719,-3.7719,-3.777,-3.7779,-3.7781,-3.778,-3.7781,-3.7781,-3.7793,-3.7787,-3.778,-3.7779,-3.7778,-3.7778,0,-3.7485,-3.7492,-3.7553,-3.7577,-3.7584,-3.7623,-3.7643,-3.7675,-3.7681,-3.7726,-3.7736,-3.7746,-3.7784,-3.7787,-3.7831,-3.7831,-3.7892,-3.7886,-3.7884,-3.7882,-3.792,-3.7916,-3.8047,-3.8063,-3.7953,-3.7954,-3.7955,0,-3.7545,-3.7584,-3.7611,-3.7634,-3.765,-3.7687,-3.771,-3.771,-3.7734,-3.7764,-3.7792,-3.7829,-3.7858,-3.7919,-3.7929,-3.7962,-3.7956,-3.7999,-3.796,-3.796,-3.7954,-3.7951,-3.7954,-3.8006,-3.8008,-3.8009,-3.8009,0,-3.765,-3.7651,-3.7685,-3.772,-3.7747,-3.7774,-3.78,-3.7819,-3.7821,-3.7848,-3.7888,-3.791,-3.7955,-3.7991,-3.8023,-3.8035,-3.8022,-3.8022,-3.8032,-3.8033,-3.8029,-3.8029,-3.7902,-3.8018,-3.8017,-3.8017,-3.8016,-3.8016,-3.7724,-3.7756,-3.778,-3.7818,-3.7837,-3.786,-3.7891,-3.7901,-3.7934,-3.7971,-3.7968,-3.8011,-3.8032,-3.8074,-3.8088,-3.812,-3.8105,-3.8121,-3.8124,-3.8128,-3.8131,-3.8025,-3.8126,-3.8126,-3.8126,-3.8125,-3.8125,0,-3.7826,-3.784,-3.7875,-3.7911,-3.7939,-3.7926,-3.7953,-3.7977,-3.8015,-3.8037,-3.8066,-3.8109,-3.8144,-3.8156,-3.8189,-3.8212,-3.8206,-3.822,-3.8217,-3.822,-3.8143,-3.813,-3.8224,-3.8224,-3.8223,-3.8223,-3.8223,-3.8223,-3.7882,-3.7936,-3.794,-3.8001,-3.8015,-3.8057,-3.8073,-3.8094,-3.8111,-3.816,-3.8189,-3.8197,-3.8214,-3.8248,-3.8278,-3.828,-3.8292,-3.8308,-3.8308,-3.8236,-3.8226,-3.8216,-3.8204,-3.8311,-3.8311,-3.8382,-3.8382,-3.8383]}]]